Regional Weather Roundup
Issued by NWS

Home | Current Version | Previous Version | Graphics & Text | Print | Product List | Glossary On
Versions: 1 2 3 4 5 6 7 8 9 10 11 12 13 14 15 16 17 18 19 20 21 22 23 24 25 26 27 28 29 30 31 32 33 34 35 36 37 38 39 40 41 42 43 44 45 46 47 48 49 50
000
ASUS43 KLSX 021307
RWRMO

WEATHER SUMMARY FOR MISSOURI
NATIONAL WEATHER SERVICE SPRINGFIELD MO
700 AM CST MON MAR 02 2015

NOTE: "FAIR" INDICATES FEW OR NO CLOUDS BELOW 12,000 FEET WITH NO
       SIGNIFICANT WEATHER AND/OR OBSTRUCTIONS TO VISIBILITY.
       CURRENT SKY AND/OR WEATHER CONDITIONS ARE NOT AVAILABLE FOR
       CHILLICOTHE AND FARMINGTON.

MOZ001>031-035>038-043-044-053-054-021400-
...NORTHERN AND WESTERN MISSOURI...

CITY           SKY/WX    TMP DP  RH WIND       PRES   REMARKS
KANSAS CTY INT MOCLDY    24  19  81 E3        30.47F
KANSAS C DTWN  MOCLDY    23  19  85 CALM      30.50S
LEE`S SUMMIT   CLOUDY    23  19  85 SE5       30.48S WCI  17
ST JOSEPH      PTCLDY    22  21  96 CALM      30.49F FOG
CHILLICOTHE      N/A     20  16  84 N3        30.52S
KIRKSVILLE     PTCLDY    20  17  88 N5        30.52R WCI  13

$$
MOZ066>068-077>081-088>096-101>105-021400-
...SOUTHWEST MISSOURI...

CITY           SKY/WX    TMP DP  RH WIND       PRES   REMARKS
SPRINGFIELD    MOCLDY    23  16  74 E5        30.45S WCI  17
JOPLIN         PTCLDY    21  17  84 VRB5      30.46F WCI  15

$$
MOZ032>034-039>042-045>050-055>058-069>072-021400-
...CENTRAL MISSOURI...

CITY           SKY/WX    TMP DP  RH WIND       PRES   REMARKS
COLUMBIA       MOCLDY    20  17  88 CALM      30.50F FOG
JEFFERSON CITY FOG       13  10  88 CALM      30.54S VSB 1/4
ROLLA          MOCLDY    11  10  96 NE3       30.48S FOG
SEDALIA        CLOUDY    16  12  84 SW5       30.51S FOG     WCI   9
WHITEMAN AFB   CLEAR      9   6  88 S1        30.50R
WARRENSBURG    CLOUDY    12   9  85 CALM      30.51S
OSAGE BEACH    MOCLDY    12   9  85 CALM      30.51R

$$
MOZ051-052-059>065-021400-
...EAST CENTRAL MISSOURI...

CITY           SKY/WX    TMP DP  RH WIND       PRES   REMARKS
ST LOUIS INTL  MOCLDY    20  16  84 CALM      30.54S FOG
SPIRIT OF STL  MOCLDY    10   6  84 CALM      30.54S FOG
ST CHARLES     FOG       11   9  92 CALM      30.54S VSB<1/4

$$
MOZ072>076-082>087-097>100-106>115-021400-
...SOUTH CENTRAL AND SOUTHEAST MISSOURI...

CITY           SKY/WX    TMP DP  RH WIND       PRES   REMARKS
CAPE GIRARDEAU CLEAR     26  21  81 NE6       30.53S WCI  19
FARMINGTON     PTCLDY    19  18  93 CALM      30.53F
POPLAR BLUFF   CLEAR     28  20  71 NE9       30.52R WCI  19
WEST PLAINS    PTCLDY    23  19  85 NE6       30.48R WCI  16

$$


USA.gov is the U.S. government's official web portal to all federal, state and local government web resources and services.